Regional Weather Roundup
Issued by NWS

Home | Current Version | Previous Version | Graphics & Text | Print | Product List | Glossary On
Versions: 1 2 3 4 5 6 7 8 9 10 11 12 13 14 15 16 17 18 19 20 21 22 23 24 25 26 27 28 29 30 31 32 33 34 35 36 37 38 39 40 41 42 43 44 45 46 47 48 49 50
000
ASUS43 KIND 170859
RWRIN

WEATHER ROUNDUP FOR INDIANA
NATIONAL WEATHER SERVICE INDIANAPOLIS IN
500 AM EDT WED SEP 17 2014

NOTE: "FAIR" INDICATES FEW OR NO CLOUDS BELOW 12,000 FEET WITH NO
SIGNIFICANT WEATHER AND/OR OBSTRUCTIONS TO VISIBILITY.

* - STATION DOES NOT REPORT WEATHER SUCH AS PRECIPITATION OR FOG.

+ - STATION NOT QUALITY CONTROLLED BY THE NATIONAL WEATHER SERVICE.
    USE DATA WITH CAUTION...ESPECIALLY DEWPOINT AND RELATIVE
    HUMIDITY OBSERVATIONS.

INZ001>003-010>013-019-020-171000-
NORTHWEST INDIANA

CITY           SKY/WX    TMP DP  RH WIND       PRES   REMARKS
VALPARAISO     FOG       43  42  97 CALM      30.08S VSB 1/2

$$

LMZ046-743>745-171000-
SOUTHERN LAKE MICHIGAN

STATION/POSITION TIME  TEMP WIND        PRES
                       AIR  DIR/SP/G
                 (UTC) (F)  (DEG/KT/KT) (MB)
MICHIGAN CITY    0800   50  130/  8/  9   N/A

$$

INZ004-005-014>016-021>024-171000-
NORTH CENTRAL INDIANA

CITY           SKY/WX    TMP DP  RH WIND       PRES   REMARKS
GOSHEN         CLEAR     44  41  89 CALM      30.07F
PERU/GRISSOM   CLEAR     46  46 100 SW2       30.07S FOG
SOUTH BEND     CLEAR     44  40  85 CALM      30.08S

$$

INZ006>009-017-018-025>027-171000-
NORTHEAST INDIANA

CITY           SKY/WX    TMP DP  RH WIND       PRES   REMARKS
ANGOLA *+      CLOUDY    41  41 100 CALM      30.07S VSB 1/4
FORT WAYNE     PTCLDY    44  42  93 SW3       30.08F

$$

INZ028-029-035-036-043>045-051>053-171000-
WEST CENTRAL INDIANA

CITY           SKY/WX    TMP DP  RH WIND       PRES   REMARKS
GREENCASTLE +  FOG       45  45 100 CALM      30.09S VSB 1/4
LAFAYETTE      PTCLDY    44  44 100 MISG      30.08S FOG
TERRE HAUTE    FOG       44  43  96 CALM      30.08S VSB 1/4

$$

INZ030>032-037>040-046>048-054>057-064-065-171000-
CENTRAL INDIANA

CITY           SKY/WX    TMP DP  RH WIND       PRES   REMARKS
INDIANAPOLIS   PTCLDY    49  48  97 SW5       30.07F FOG
-EAGLE CREEK   PTCLDY    47  45  93 CALM      30.07F FOG
KOKOMO *+        N/A     45  43  93 CALM      30.08S VSB 3/4
MT COMFORT *+    N/A     43 N/A N/A CALM      30.08F VSB 1/4
SHELBYVILLE    FOG       45  42  89 CALM      30.07F VSB 1/2

$$

INZ033-034-041-042-049-050-058-059-171000-
EAST CENTRAL INDIANA

CITY           SKY/WX    TMP DP  RH WIND       PRES   REMARKS
MUNCIE         CLEAR     44  42  93 CALM      30.07F FOG

$$

INZ060-061-067>069-081>083-085>088-171000-
SOUTHWEST INDIANA

CITY           SKY/WX    TMP DP  RH WIND       PRES   REMARKS
EVANSVILLE     CLEAR     48  45  89 CALM      30.08F

$$

INZ062-063-066-070>080-084-089>092-171000-
SOUTH CENTRAL AND SOUTHEAST INDIANA

CITY           SKY/WX    TMP DP  RH WIND       PRES   REMARKS
BLOOMINGTON    FOG       44  42  93 CALM      30.08S VSB 1/4

$$




USA.gov is the U.S. government's official web portal to all federal, state and local government web resources and services.